RH
27 27 26 26 26 25 25 25 25 24 24 23 23 22 21 20 19 18 18 17 17 17 16 16 15 15 15 14 15 16 16 17 18 15 13 14 15 14 14 13 13 13 13 13 13 14 15 17 18 19 19 20 20 21 21 21 21 20 21 21 21 21 21 22 24 21 20 20 19 18 18 20 21 19 20 22 23 23 24 25 24 24 24 25 29 31 31 30
28 28 27 27 27 27 27 27 27 26 26 25 24 24 24 23 22 21 20 19 19 17 17 17 17 16 15 14 14 15 16 17 18 17 14 14 15 15 15 13 13 13 13 14 15 15 17 18 18 19 20 21 22 23 22 22 21 21 21 21 19 20 19 19 20 19 18 18 18 18 18 19 19 18 19 23 24 23 23 24 24 26 26 26 29 32 32 32
28 29 29 29 28 28 28 28 27 27 27 27 26 25 25 24 24 23 22 22 20 19 19 18 19 19 18 16 15 15 16 16 19 18 14 14 15 15 15 14 14 14 13 15 17 17 18 18 19 20 21 22 23 23 23 23 23 21 20 20 19 18 18 17 17 18 18 18 18 18 18 18 17 18 20 24 24 23 24 24 26 29 27 27 29 31 32 33
26 27 28 28 29 29 28 28 28 28 28 28 27 26 26 25 24 24 23 23 22 22 20 20 20 20 21 20 18 16 15 18 20 19 17 14 14 16 15 14 15 15 15 17 19 19 19 19 19 21 21 22 22 22 23 23 23 21 19 19 18 17 16 16 16 16 16 17 18 18 18 17 17 19 22 23 24 25 24 22 24 26 25 25 28 31 33 33
25 25 26 26 28 28 29 29 29 29 29 29 28 27 27 26 25 24 23 23 23 22 22 21 21 21 22 22 22 19 17 20 21 19 20 18 15 16 16 15 16 17 15 17 20 20 20 20 20 21 21 22 22 23 23 23 22 20 19 18 18 17 17 17 16 16 16 16 17 17 18 17 17 19 21 22 23 24 22 20 20 22 23 24 26 29 33 33
25 25 24 25 26 27 28 29 30 30 29 29 28 28 27 27 25 24 23 24 23 24 23 23 22 22 23 23 24 22 19 21 20 20 22 21 17 16 16 15 16 17 16 17 20 20 21 21 21 22 22 24 24 24 24 23 22 21 20 19 19 18 18 19 18 18 17 16 16 17 17 17 18 20 20 20 22 21 19 18 19 20 22 23 25 27 31 32
25 25 25 24 24 25 26 28 29 30 30 29 28 28 28 27 26 24 24 24 24 25 25 24 23 23 24 24 25 25 24 22 20 20 21 22 20 17 17 16 16 18 18 18 20 21 21 21 22 22 24 25 25 24 24 23 22 22 21 20 20 19 19 19 19 18 17 16 17 18 17 18 19 21 20 20 21 20 20 19 18 20 21 23 25 27 28 30
24 25 25 25 24 24 25 25 27 28 30 29 28 28 28 27 27 25 24 25 25 25 25 24 24 24 24 26 27 27 26 24 22 22 22 24 23 20 18 17 17 18 18 19 20 20 21 21 22 22 24 26 25 24 23 22 22 22 22 21 20 19 19 19 19 19 17 17 17 19 20 19 20 21 21 20 19 20 20 19 19 21 22 22 24 26 27 28
23 24 24 24 25 24 25 25 25 26 27 29 29 29 28 28 27 26 25 26 26 25 25 24 24 24 24 25 27 27 27 26 25 25 24 26 26 24 21 19 19 18 19 20 21 21 21 21 22 22 24 25 24 23 22 21 22 22 21 21 21 20 20 20 20 20 19 18 17 18 18 19 19 20 20 19 19 20 20 19 20 21 21 22 24 26 27 28
23 23 22 23 24 24 24 24 24 24 25 26 28 29 29 28 27 26 24 25 25 25 25 24 23 24 25 26 27 29 28 26 27 27 26 26 27 28 25 22 22 21 20 20 21 21 22 22 23 22 23 24 23 23 22 22 22 21 21 21 21 21 21 21 21 21 21 20 19 18 19 19 19 19 20 20 19 20 20 20 21 21 21 22 23 25 27 28
23 23 22 22 23 23 24 24 24 23 24 24 25 27 28 28 27 26 24 24 24 25 24 24 24 25 26 27 28 29 27 26 27 27 27 27 27 29 27 25 24 23 22 21 21 22 22 23 23 23 23 23 23 23 23 22 21 21 20 21 21 21 21 21 21 21 21 20 20 20 20 20 20 20 20 20 20 21 21 21 22 22 22 22 23 25 27 28
23 22 21 21 21 22 23 24 23 23 23 23 24 25 26 27 27 26 24 24 23 24 24 24 25 26 26 27 28 28 26 26 27 27 27 28 29 29 27 26 24 24 24 23 22 23 24 24 24 23 23 23 24 24 24 23 21 21 20 21 21 22 21 21 21 21 21 20 20 22 21 21 21 20 20 19 20 21 21 21 22 23 23 23 24 26 27 28
23 22 21 20 20 21 22 23 23 23 23 22 23 23 24 25 26 26 25 24 24 24 24 25 26 26 26 27 28 27 26 27 27 28 28 29 29 29 27 26 25 25 25 24 23 24 24 24 24 24 23 23 24 24 24 23 22 21 21 21 21 22 22 21 21 21 22 22 21 22 22 22 22 21 20 19 20 21 21 22 22 23 24 25 26 26 27 27
23 22 21 20 20 20 21 22 23 23 22 22 21 21 23 23 24 25 25 25 24 24 25 26 26 27 27 26 27 27 27 27 27 28 28 29 29 29 29 28 27 27 26 25 24 23 23 24 25 25 24 25 24 24 25 25 24 23 22 22 22 22 22 21 22 24 23 23 22 22 24 23 22 21 20 19 20 20 21 21 22 24 25 26 26 27 27 26
23 22 21 20 19 19 20 21 23 22 22 20 19 20 21 22 23 23 24 24 25 25 26 26 26 27 26 26 26 27 27 27 28 29 29 30 30 29 29 29 29 28 27 25 24 24 23 23 25 26 26 25 25 25 26 26 27 27 24 25 25 23 21 21 24 26 25 24 24 23 25 24 23 22 21 20 20 20 20 21 22 24 26 27 28 28 26 27
23 21 21 19 19 19 19 20 21 21 20 19 19 20 20 20 21 22 22 23 24 26 26 27 27 27 26 26 27 28 29 29 29 29 29 30 29 29 29 29 29 28 27 26 25 25 24 25 25 26 26 27 26 25 27 28 29 30 27 26 27 25 23 23 24 26 26 26 26 25 26 25 23 22 21 22 22 21 21 20 21 23 26 28 28 28 28 27
23 21 20 20 19 18 18 19 20 21 20 19 19 19 18 19 20 21 22 23 24 25 25 26 27 27 26 26 26 28 30 30 29 30 30 29 29 29 29 30 30 29 28 27 26 26 25 26 25 26 27 27 27 26 28 29 30 33 31 28 28 27 26 25 24 26 28 28 28 27 27 26 24 23 23 23 23 22 22 21 21 22 25 28 29 29 29 29
22 21 20 19 18 18 17 18 19 20 19 18 18 18 18 18 18 19 21 22 23 23 24 26 26 26 26 25 26 28 29 30 30 29 29 29 30 30 30 30 31 30 30 29 27 26 26 26 25 28 29 27 25 26 29 30 29 31 31 29 30 29 29 28 26 27 29 29 30 29 29 28 25 24 24 24 24 24 24 23 21 22 24 28 30 30 31 31
23 21 20 19 19 18 17 17 18 18 17 17 17 17 17 17 18 19 19 20 20 20 23 24 24 25 25 23 24 25 26 28 29 28 28 29 29 30 30 29 30 30 29 30 29 28 27 26 27 30 30 26 25 27 28 29 29 30 31 31 31 30 30 30 29 29 30 31 31 31 30 29 26 24 23 24 25 24 24 24 23 24 24 27 30 30 31 32
23 22 20 19 18 18 17 16 17 17 16 17 17 17 17 19 20 20 19 17 19 19 20 21 22 22 22 22 22 23 24 25 26 27 28 28 28 28 29 28 29 28 29 30 30 29 28 28 31 31 29 27 27 28 29 30 30 31 32 33 33 31 30 30 31 32 34 34 32 31 31 29 27 25 24 24 25 25 25 25 24 24 24 26 28 30 30 29
23 23 22 19 18 17 16 16 17 16 16 17 17 17 18 20 23 23 20 18 18 19 21 22 22 22 21 22 22 23 24 23 24 25 26 27 27 27 27 28 28 29 29 29 29 28 28 30 32 30 28 28 28 29 30 30 31 31 33 33 33 33 32 31 32 34 36 36 34 32 31 30 28 26 25 26 26 26 28 29 27 27 26 25 26 28 28 29
23 23 22 20 18 17 16 16 16 16 17 18 16 16 18 19 21 22 22 22 20 21 23 23 22 22 22 22 23 24 24 25 24 24 24 25 26 27 26 27 27 29 28 27 28 28 29 32 30 27 28 29 30 30 29 30 32 33 34 34 34 35 35 32 33 36 36 36 36 34 33 32 30 29 28 29 30 29 33 34 33 32 31 28 27 26 28 31
23 23 22 21 20 18 17 16 15 16 17 17 16 16 18 18 18 19 23 24 23 22 24 23 22 22 22 23 23 24 24 24 23 23 24 24 25 26 26 27 27 28 27 26 28 29 31 32 28 27 28 28 30 30 29 30 32 34 34 35 36 36 36 34 33 35 35 35 36 36 34 33 31 32 32 32 33 34 35 36 36 35 34 31 29 27 28 30
23 23 22 21 20 19 18 17 16 16 17 17 15 15 17 18 16 19 23 25 25 24 23 23 23 22 23 24 23 24 24 24 23 23 23 24 25 25 25 26 27 27 27 27 27 28 30 29 27 27 27 28 29 29 29 30 32 35 35 34 35 36 36 34 33 32 33 34 36 36 36 34 34 35 34 33 37 38 38 39 39 38 37 35 32 30 28 28
23 23 22 21 21 20 19 18 17 17 18 17 15 16 18 18 17 20 26 31 30 27 25 24 25 25 25 25 24 24 24 23 23 23 23 24 25 25 25 26 27 27 28 28 27 27 27 27 26 27 27 27 28 29 31 31 32 34 33 33 33 33 33 33 33 33 33 33 34 34 36 36 36 36 35 36 40 41 41 43 42 40 40 39 36 33 28 27
21 22 22 21 21 20 19 19 18 17 18 18 16 17 19 18 19 22 29 37 33 27 27 27 26 26 25 25 25 24 25 25 23 23 23 23 24 25 25 26 26 27 28 28 27 27 26 26 26 26 27 27 27 29 31 31 32 31 32 32 32 31 31 31 33 33 34 34 32 32 34 34 34 34 35 39 41 41 42 44 43 42 42 42 40 36 32 28
20 20 21 21 21 20 19 18 17 17 18 18 16 18 19 18 20 24 30 36 33 27 28 28 27 27 26 26 26 24 26 25 23 23 23 22 24 25 26 27 27 26 28 28 27 28 27 26 25 26 26 26 27 28 29 29 30 30 31 32 32 32 32 32 34 34 34 33 33 33 33 31 31 32 36 39 39 39 40 42 43 42 42 43 43 39 35 31
19 19 20 21 21 19 19 18 18 18 17 17 16 17 19 18 21 28 30 32 30 28 28 28 27 26 26 27 26 25 25 24 24 25 23 23 24 24 26 27 27 28 28 28 28 27 27 26 26 27 26 27 28 28 29 29 29 30 30 30 31 32 32 34 34 35 36 33 34 36 35 33 32 34 37 38 37 38 39 40 43 43 41 42 44 42 38 34
18 18 19 20 21 20 19 19 19 19 17 17 17 17 18 19 23 29 31 30 29 27 27 27 26 26 26 26 26 25 25 24 25 25 24 25 25 24 26 27 28 28 28 28 28 26 27 26 27 27 27 28 28 28 29 29 30 30 29 30 30 31 33 35 35 34 36 35 34 36 36 34 34 36 37 36 35 38 41 41 43 43 42 43 44 43 41 37
18 18 19 19 20 20 19 20 20 19 18 16 16 17 18 22 27 31 31 31 29 26 26 26 25 25 25 26 26 26 26 26 25 25 25 25 25 25 26 26 27 28 30 30 28 27 27 26 28 28 28 28 27 27 27 28 29 29 30 31 31 33 34 38 41 36 35 39 37 35 36 33 35 40 38 33 35 39 41 43 45 46 45 45 45 45 45 43
18 17 18 19 20 19 20 20 19 19 18 16 16 18 19 23 33 36 31 28 29 28 26 26 27 26 26 28 28 26 27 28 27 27 27 27 28 28 28 29 30 33 36 33 30 30 29 28 30 30 29 29 28 28 27 29 31 30 34 35 33 37 36 38 44 38 37 43 38 36 38 34 36 41 39 35 37 40 42 42 44 47 46 46 47 48 49 48
18 17 17 19 19 20 21 21 20 19 18 17 16 19 23 25 29 35 31 26 29 29 26 26 26 26 27 29 29 27 28 30 28 28 29 30 32 31 31 33 34 35 38 36 33 33 32 30 30 30 30 30 30 31 29 32 34 32 39 42 41 44 43 43 49 44 43 43 37 37 40 37 37 37 36 37 37 41 45 44 42 45 47 46 47 49 51 52
18 17 17 18 20 21 22 22 20 19 19 19 17 20 30 29 26 32 34 29 29 28 26 26 26 26 28 29 29 28 29 30 30 29 31 32 34 35 34 35 35 34 37 39 37 35 34 34 32 30 32 31 31 32 32 34 35 33 38 43 44 48 48 51 55 49 44 42 38 40 40 39 39 36 37 40 39 41 44 42 42 44 46 45 47 51 54 56
18 17 17 18 20 21 22 21 19 20 20 18 18 22 27 28 28 34 35 30 29 28 26 28 27 28 28 28 28 27 28 30 29 29 32 33 36 39 38 37 36 36 37 39 39 39 39 39 36 32 33 33 32 33 33 33 35 36 39 41 42 44 46 51 54 47 43 43 41 40 41 41 39 36 41 45 43 42 41 41 42 43 44 45 46 52 56 57
18 18 17 18 21 21 22 21 19 20 18 17 25 29 27 27 31 35 33 31 31 29 27 28 29 30 31 32 31 27 27 29 28 29 32 34 35 38 38 37 37 37 38 39 41 41 41 41 39 35 34 34 33 34 34 34 37 40 40 40 42 43 45 49 51 47 44 47 47 43 41 42 39 38 45 48 44 41 40 40 42 42 45 46 47 51 55 56
19 18 18 20 20 20 21 21 20 20 18 21 31 33 29 30 33 33 31 30 30 29 29 29 30 32 33 33 34 29 27 28 29 30 33 33 35 38 38 36 37 38 38 40 42 43 43 43 40 35 35 36 36 37 35 34 40 42 39 38 40 41 43 49 53 51 50 51 49 44 40 40 39 39 45 48 45 42 43 45 44 43 45 47 50 52 54 57
19 18 18 20 20 20 21 21 21 20 18 24 32 31 31 33 31 31 31 30 30 31 32 31 29 30 31 32 34 33 30 31 31 31 33 36 36 37 39 38 38 38 38 39 42 43 43 43 40 36 36 37 36 37 38 37 39 42 40 39 41 42 45 51 54 53 56 57 51 43 40 41 40 39 44 47 44 43 46 49 49 46 45 48 51 53 55 59
19 18 19 20 20 21 22 21 21 20 20 27 33 33 34 32 29 30 30 30 32 32 32 32 30 30 30 30 33 34 32 33 34 34 35 37 37 37 40 40 38 38 38 39 41 43 42 43 44 41 37 37 37 36 39 40 37 38 40 39 42 44 46 50 53 56 61 62 55 47 43 42 40 39 43 46 46 45 48 51 54 53 51 50 49 50 54 59
20 19 19 20 21 21 23 23 22 22 27 33 36 35 34 33 31 31 30 30 33 33 32 32 31 31 32 30 32 36 35 35 36 36 36 37 37 37 40 40 38 39 39 38 40 43 43 43 45 44 38 38 39 39 40 42 38 38 40 42 45 46 46 48 50 55 59 60 58 52 44 41 41 42 45 47 47 48 48 49 55 57 53 52 51 51 53 57
20 20 20 20 21 23 24 24 25 28 34 36 38 37 35 35 35 33 31 32 33 33 33 34 33 33 34 33 34 36 37 38 37 36 37 37 36 38 40 40 40 41 40 41 42 43 43 45 46 45 40 39 41 41 40 39 39 39 39 42 47 47 47 46 44 46 50 55 61 60 50 44 43 45 49 51 49 49 48 47 52 55 54 52 53 54 55 56
21 22 22 21 23 25 25 27 31 36 40 40 40 40 37 36 36 34 33 33 34 34 34 35 35 35 35 36 38 38 39 41 40 38 38 38 38 40 41 40 42 43 43 46 47 45 45 47 47 46 44 42 43 41 37 36 38 38 39 42 44 45 45 45 46 47 48 54 63 65 60 50 42 45 51 50 50 51 51 49 52 55 53 51 53 55 55 54
22 23 24 22 24 25 27 33 37 39 42 41 38 38 37 36 36 34 33 33 34 35 36 37 38 40 40 39 41 41 41 42 42 40 40 40 41 43 41 41 44 45 46 49 49 46 45 46 46 46 44 41 39 35 34 37 37 38 40 41 45 48 47 47 51 52 52 56 57 60 62 53 44 47 51 49 50 52 52 55 61 61 53 48 52 55 53 53
24 24 24 24 26 26 30 39 42 41 42 39 35 36 37 37 37 35 34 34 35 36 37 39 40 41 42 43 42 42 42 42 43 42 42 43 43 42 41 41 43 45 48 50 49 44 44 46 47 45 39 36 37 35 35 38 39 40 43 43 46 49 48 50 55 56 57 58 55 57 60 53 45 48 50 48 47 47 48 51 58 63 55 47 49 51 52 53
25 27 27 26 28 29 34 40 42 43 44 40 39 38 36 36 37 37 36 35 36 38 39 41 42 41 43 44 43 43 42 42 43 45 46 46 45 42 41 40 43 46 48 49 47 43 45 50 51 49 45 40 39 40 41 42 44 44 44 46 46 48 49 52 56 59 61 56 52 59 60 50 46 51 52 49 46 45 44 42 46 55 55 48 46 48 52 54
28 29 28 29 30 32 36 40 41 43 45 44 44 42 38 38 37 36 36 36 36 38 39 41 41 41 45 46 45 46 46 43 44 46 47 47 46 44 42 41 43 45 46 45 42 42 46 50 50 53 57 54 49 48 49 48 46 46 46 46 47 49 50 52 57 64 63 56 53 57 55 46 44 50 52 50 50 47 43 39 39 47 54 53 49 47 51 55
32 33 33 32 33 34 37 38 39 42 45 45 44 42 41 42 39 35 36 36 36 38 38 39 40 41 46 47 46 48 49 46 45 46 46 47 47 43 40 40 41 43 44 41 39 41 47 50 49 49 53 52 50 48 49 49 47 46 46 47 49 49 50 56 64 63 58 59 57 49 48 48 42 40 47 52 53 51 48 46 42 42 48 52 53 55 57 58
34 38 39 37 37 39 41 40 41 43 45 43 42 42 43 45 42 38 37 37 37 38 39 39 39 41 45 45 44 47 48 46 46 47 46 47 48 44 39 38 40 41 41 39 38 42 46 47 47 47 44 44 46 47 48 47 44 41 41 44 48 48 50 57 61 56 56 67 63 47 49 57 44 34 42 52 54 54 54 55 50 45 45 46 48 55 64 66
37 39 39 39 41 45 46 44 44 47 47 45 46 46 45 46 45 42 40 38 38 39 40 42 41 42 45 45 45 46 47 47 48 48 47 47 47 45 40 40 40 40 40 39 37 42 45 45 47 48 42 39 43 49 48 43 39 37 36 38 42 44 46 50 51 52 60 70 63 49 50 56 44 34 41 49 52 52 52 52 51 48 46 44 44 47 55 61
41 41 41 41 42 45 46 45 46 48 48 48 50 49 47 48 48 44 42 43 43 41 41 44 44 44 47 48 47 47 48 48 48 49 48 46 45 45 44 43 42 40 40 41 41 43 46 49 50 50 42 33 36 44 45 40 38 37 35 38 41 41 43 47 49 50 55 60 55 49 49 47 38 35 40 45 46 47 50 51 51 50 46 44 45 44 44 47
41 42 42 42 42 44 46 46 48 49 49 49 50 48 48 48 48 46 44 43 44 44 42 45 47 48 49 49 48 47 46 46 48 49 48 47 47 48 47 44 43 42 40 40 42 42 45 47 46 45 42 32 30 40 44 42 43 42 39 38 39 39 41 45 49 49 50 52 50 49 52 45 34 34 41 44 44 47 51 52 51 52 51 48 48 46 42 41
43 43 43 42 44 48 49 48 50 51 51 52 53 51 50 48 47 48 47 42 43 45 46 46 48 49 50 49 47 46 44 45 47 47 45 46 47 46 45 43 42 42 40 40 42 40 42 46 42 43 47 38 30 39 46 45 46 46 42 39 38 41 44 46 50 52 53 53 53 54 58 49 38 40 46 48 50 53 54 52 50 52 55 55 53 48 44 44
45 45 44 44 46 49 51 50 52 53 51 53 54 53 50 48 47 47 47 45 43 45 46 46 45 46 49 48 46 44 43 43 43 42 40 42 42 42 42 41 41 42 40 40 42 41 43 46 43 46 52 44 34 41 47 48 50 45 41 43 45 47 50 48 49 51 51 54 59 61 60 54 50 50 52 51 52 52 49 49 49 49 53 57 56 52 47 46